Presure
161 153 135 137 140 145 120 137 143 148 160 152 147 172 162 142 138 150 150 170 150 166 147 128 126 96 95 100 112 122 146 153 140 134 163 136 164 161 124 90 117 95 97
178 178 154 134 137 125 128 134 134 148 140 151 139 163 152 161 156 138 157 151 158 166 159 156 152 102 140 127 136 125 143 154 156 156 135 97 102 157 144 130 157 140 96
173 181 177 170 139 133 132 131 125 140 141 127 151 152 133 170 162 156 142 143 155 144 147 160 155 113 104 157 137 163 162 162 155 133 149 134 109 114 115 111 143 111 108
161 165 181 169 138 124 128 133 125 133 144 131 110 117 126 164 168 164 157 146 138 157 160 150 147 148 132 125 161 158 159 154 137 138 137 147 142 131 113 107 133 136 134
123 116 168 176 179 118 119 132 134 125 133 137 143 148 138 160 166 168 166 160 150 133 149 125 152 149 143 142 146 123 134 142 156 138 139 127 124 131 134 134 120 116 116
144 170 95 170 171 179 123 130 130 135 133 134 136 107 139 159 148 165 115 169 164 148 137 147 151 154 151 150 104 155 155 150 151 148 136 130 140 130 130 132 139 138 127
186 185 181 175 164 170 177 125 147 130 132 131 135 147 149 135 163 149 159 167 169 167 149 140 144 146 147 136 140 142 136 142 144 138 130 153 139 132 137 138 165 154 154
214 202 189 178 130 159 175 155 129 134 130 131 131 131 148 150 121 162 143 146 163 164 161 159 154 155 125 124 140 149 168 144 109 105 144 143 111 95 146 131 102 101 143
201 208 120 192 134 176 146 174 180 133 134 135 134 133 140 144 147 152 142 148 156 146 165 170 165 166 162 166 164 161 151 152 166 95 159 95 137 124 139 132 163 134 118
214 196 207 222 100 165 164 106 171 188 137 135 135 135 134 143 161 145 144 138 146 161 138 137 113 108 155 155 109 144 156 136 101 140 138 103 101 134 167 167 130 151 158
176 219 146 207 217 169 103 174 166 101 194 165 134 138 139 138 146 151 145 148 130 134 146 135 142 147 155 119 144 137 133 118 130 123 114 126 103 110 109 153 158 157 161
206 248 211 200 190 223 170 108 160 200 170 149 136 154 145 137 139 143 142 131 146 144 137 130 132 134 136 139 140 118 122 129 128 124 95 103 153 143 176 159 153 129 157
275 137 262 224 209 210 218 203 172 177 109 177 158 138 139 133 135 139 125 122 126 126 138 135 132 126 128 124 126 128 126 133 174 177 144 143 151 151 167 123 170 174 148
202 278 86 80 203 170 161 185 202 183 106 107 176 185 143 142 132 136 133 136 134 134 136 136 138 135 145 141 134 133 129 120 105 142 139 106 132 168 141 156 172 138 196
306 311 99 84 94 172 157 169 197 196 181 186 170 103 96 124 141 138 156 135 157 137 131 134 139 142 143 141 135 125 133 145 152 145 90 157 151 128 138 168 197 154 182
123 392 279 279 229 217 196 220 181 213 189 194 178 181 174 185 130 129 130 137 134 137 137 132 145 141 148 145 158 160 87 143 176 143 144 139 166 151 163 198 167 159 164
420 408 277 261 179 198 207 199 201 176 210 197 180 195 163 177 179 174 156 140 135 108 147 157 144 132 149 140 155 130 153 155 167 130 136 147 162 160 179 171 185 162 160
420 310 271 249 266 149 228 194 176 192 220 183 201 178 194 174 184 171 168 162 152 110 151 151 160 155 125 150 154 141 119 185 133 152 155 110 106 106 171 124 117 174 155
410 294 271 250 264 131 167 188 210 187 227 205 207 193 181 169 181 185 171 163 138 164 161 151 106 133 168 118 134 93 148 186 127 92 94 140 182 169 192 117 168 168 170
422 246 257 244 200 214 227 186 202 210 219 197 223 206 169 179 169 168 178 172 168 160 169 169 168 164 160 166 169 175 185 95 154 170 199 95 167 174 205 157 166 164 149
141 260 250 254 253 206 78 192 189 216 184 209 194 195 172 178 222 173 183 175 172 127 157 135 170 166 166 168 163 113 142 97 180 165 179 94 105 167 155 178 150 94 162
432 253 253 235 220 210 214 191 194 205 186 192 167 172 164 175 177 182 167 167 166 163 164 157 165 165 174 168 150 174 172 155 135 142 178 127 158 153 179 151 150 140 159
370 256 265 218 197 215 209 186 200 174 192 200 185 181 172 164 175 133 156 157 173 159 171 169 174 168 168 170 161 179 168 165 166 174 157 148 145 150 154 162 123 162 171
328 227 240 223 197 209 239 203 178 200 192 181 191 178 163 138 169 168 186 163 169 164 169 171 171 162 172 159 161 157 174 179 170 155 143 136 144 136 131 158 169 169 186
297 230 245 207 214 223 202 200 198 200 197 189 167 179 193 146 172 183 188 184 179 174 160 154 137 150 169 146 137 177 142 150 188 185 135 205 196 169 145 169 190 173 175
239 227 221 203 207 209 196 193 185 181 199 178 197 182 169 130 178 144 184 155 174 173 125 155 148 164 150 167 164 153 155 147 176 139 175 193 145 171 179 168 176 182 182
Wind_Speed
46 46 40 37 38 37 31 30 27 28 30 29 28 27 30 28 27 30 28 22 28 23 29 28 27 13 12 13 17 20 23 22 22 21 20 20 20 20 17 9 17 13 14
51 51 49 40 40 34 32 33 29 31 29 30 29 29 29 32 32 28 29 30 27 23 27 29 30 17 30 25 26 24 26 24 23 22 23 14 16 23 21 21 25 24 17
51 55 52 52 44 39 38 35 34 32 31 29 32 31 30 33 34 34 32 33 30 32 31 26 25 20 19 25 27 25 24 23 23 23 22 21 19 20 20 19 26 20 24
53 53 55 53 44 38 38 41 37 34 36 32 28 32 31 34 35 36 36 36 32 31 29 32 32 32 25 22 26 26 25 24 25 24 24 25 25 24 22 22 27 27 27
43 39 55 56 57 40 40 43 43 39 36 35 36 36 35 37 36 37 37 37 38 31 34 28 31 33 33 30 29 25 27 27 27 27 26 24 25 27 30 30 27 28 29
49 60 33 57 56 57 45 45 44 44 41 38 38 33 38 38 38 37 33 40 40 39 34 36 34 34 33 32 24 30 30 30 30 30 29 27 31 29 29 31 36 37 33
67 66 66 62 57 57 56 46 54 45 44 42 41 44 42 41 43 38 38 42 42 41 40 38 37 37 35 32 32 31 29 30 32 31 28 36 34 34 38 38 44 43 44
71 73 69 68 48 57 60 55 51 51 49 47 45 44 45 44 37 44 39 38 42 42 41 42 40 40 33 31 34 37 41 33 25 24 33 36 27 22 41 35 26 29 45
74 74 46 73 47 66 59 61 62 55 55 53 51 48 47 45 45 44 42 41 42 39 44 44 41 43 44 42 41 40 38 38 42 22 39 24 37 35 40 39 48 41 42
75 78 77 76 47 61 65 40 65 66 58 56 53 52 49 49 52 46 45 43 42 46 39 40 35 31 45 44 29 40 41 36 29 36 35 30 30 39 50 50 42 45 44
50 81 42 76 72 65 44 68 69 29 69 64 55 55 55 50 52 51 48 47 44 43 46 43 45 49 48 33 44 41 37 35 35 34 34 36 36 39 37 45 49 51 51
77 78 83 78 65 67 70 32 60 71 68 60 58 60 59 52 52 51 50 46 49 49 47 46 47 47 44 45 45 35 36 37 36 36 34 37 48 42 46 49 50 51 48
79 46 82 85 81 73 67 72 73 73 38 65 64 60 59 53 52 51 50 48 50 49 52 52 51 45 43 39 41 42 39 42 51 51 45 42 49 47 49 42 46 46 58
61 83 23 20 83 59 67 76 75 77 39 39 66 64 62 61 52 55 54 56 56 54 55 56 56 53 59 54 48 46 43 40 37 47 42 42 34 58 50 51 44 38 38
49 54 27 23 29 71 59 70 79 78 74 71 67 36 33 50 62 60 59 60 64 59 55 55 57 59 59 57 51 46 48 56 60 51 45 52 51 46 50 49 46 50 33
47 67 88 89 87 83 90 75 72 78 76 71 68 65 62 61 54 55 57 63 58 62 61 54 65 60 65 63 64 63 38 52 60 50 48 42 61 51 51 53 38 34 33
52 72 90 91 64 76 94 85 81 66 75 72 71 65 70 62 63 63 59 67 60 45 69 72 69 51 69 59 69 45 66 66 67 36 42 55 59 55 51 41 35 44 46
47 87 94 102 102 57 89 84 71 78 71 73 69 67 62 64 61 65 65 70 73 48 74 74 72 75 52 69 69 56 43 61 46 59 60 58 53 45 48 54 47 40 54
48 85 99 95 94 44 68 87 79 81 66 67 66 63 64 66 62 62 66 72 60 70 74 69 51 63 73 56 57 42 65 60 61 43 44 54 58 51 57 56 40 47 52
45 89 94 97 78 99 93 66 80 66 60 65 59 60 67 61 67 65 64 67 69 74 68 69 73 77 78 73 69 65 64 54 58 64 63 44 45 43 51 53 44 48 50
43 97 98 96 99 98 23 81 77 58 75 57 57 48 70 62 50 66 63 64 65 45 80 57 74 76 75 71 72 56 63 55 63 59 59 46 56 36 49 32 59 45 51
29 101 98 97 97 96 87 84 81 64 64 71 75 74 72 61 63 61 71 63 70 68 80 81 78 76 70 74 68 71 71 66 59 49 62 58 43 54 59 60 62 50 57
52 98 98 98 88 95 91 79 69 76 72 69 77 71 71 61 68 46 55 56 71 76 79 80 73 76 76 76 73 75 73 70 65 65 50 48 58 56 56 54 52 60 58
59 96 104 98 84 93 82 79 77 74 78 79 77 73 70 49 62 72 63 77 78 79 80 81 78 73 75 73 69 56 75 76 65 47 55 65 64 69 72 63 58 58 68
79 101 103 102 100 89 86 81 81 77 81 80 73 77 68 51 71 67 64 70 74 74 69 70 52 47 70 65 56 77 56 49 81 72 67 70 64 58 68 57 68 62 67
103 98 99 94 97 96 88 85 85 82 88 83 88 80 73 51 76 42 70 51 63 83 62 69 63 70 44 65 73 62 52 64 61 67 67 73 64 61 66 67 68 74 73
Wind_Direction
245 241 238 239 242 240 241 242 241 242 242 239 239 237 234 236 244 234 237 232 240 234 242 248 251 240 249 259 262 270 255 253 265 268 261 273 260 265 262 279 266 279 277
244 243 238 237 234 236 239 240 235 244 247 238 237 241 238 238 235 247 231 236 234 236 240 242 245 244 252 255 255 267 260 259 261 267 264 272 264 276 275 267 281 277 279
243 242 239 237 237 234 236 238 233 242 238 246 238 241 240 240 239 237 243 244 236 242 242 239 241 242 249 247 260 251 254 257 262 265 270 269 275 272 267 274 282 276 270
239 242 242 239 235 234 238 238 232 238 243 240 250 238 241 242 242 239 239 244 246 237 238 245 249 251 251 252 248 252 256 261 262 266 271 276 273 278 276 274 278 281 279
246 245 240 241 239 239 237 240 239 234 236 238 239 239 241 242 243 243 243 242 244 244 245 243 243 250 254 256 256 259 260 264 261 268 267 272 273 275 277 279 273 275 277
243 239 244 237 238 238 238 236 239 241 238 238 238 242 237 241 240 245 246 246 244 247 248 250 249 249 252 256 261 260 261 263 265 267 268 272 277 278 281 283 286 287 284
240 236 237 235 233 235 235 239 235 240 241 238 239 242 241 238 241 242 245 247 247 247 247 249 253 255 255 256 259 260 257 261 265 269 272 273 279 282 284 286 286 287 290
238 236 233 234 235 233 235 236 239 236 239 240 240 240 244 242 243 243 244 245 250 251 250 251 253 254 254 255 258 263 269 271 269 269 274 275 279 281 281 280 281 279 291
236 235 248 231 239 229 234 234 234 237 236 238 241 241 245 244 243 243 244 245 247 249 253 252 255 258 257 259 260 263 262 265 272 274 273 277 275 279 282 288 291 289 286
233 236 231 231 255 232 227 248 231 235 238 236 239 242 242 244 238 244 243 246 247 248 244 247 258 260 257 259 264 259 264 264 277 267 271 284 281 284 288 292 287 298 290
242 232 230 228 228 236 254 225 234 248 234 233 240 240 243 242 245 242 246 246 250 248 251 251 251 255 259 260 259 261 266 268 276 277 280 284 281 281 281 295 299 302 302
242 235 227 229 231 222 232 241 229 232 229 239 243 237 240 244 244 244 246 248 248 248 251 253 255 257 256 257 261 264 270 275 277 276 274 274 288 293 283 293 300 279 290
245 242 228 221 222 220 223 226 228 227 248 231 238 243 243 246 246 246 250 254 252 254 252 254 257 261 262 264 267 268 273 274 273 274 283 287 291 296 282 293 291 300 292
245 230 241 235 224 221 233 228 225 228 244 245 229 231 244 245 248 248 250 252 253 254 255 256 258 262 263 264 266 269 273 276 266 280 282 280 288 285 283 301 301 293 309
241 228 241 238 259 231 226 231 223 225 227 227 227 248 254 249 247 248 242 253 246 257 259 261 261 262 264 267 268 270 272 277 277 282 270 282 295 291 293 294 299 291 293
257 211 206 205 209 211 223 214 232 219 223 226 225 226 229 232 242 252 251 252 257 259 261 264 262 264 263 267 266 267 264 275 269 284 277 286 285 284 290 296 285 293 304
221 205 199 198 223 210 220 223 221 232 221 223 223 224 229 229 231 233 242 253 257 253 256 253 263 270 263 269 266 271 272 275 272 269 284 294 291 289 293 291 291 272 276
224 199 195 198 200 245 202 223 230 223 220 227 222 223 226 227 230 231 235 239 249 252 256 254 254 259 259 264 268 275 258 266 279 280 283 279 282 288 282 282 289 279 276
228 202 193 197 196 260 230 226 216 227 218 223 223 221 226 230 230 231 234 239 244 244 249 256 255 256 259 270 266 271 268 266 276 271 277 280 282 283 293 285 274 280 284
232 199 192 195 208 205 206 218 217 210 213 220 226 223 228 229 233 233 234 238 242 248 249 252 253 258 263 264 268 273 270 270 276 274 279 285 284 293 292 271 278 283 284
260 189 193 191 191 213 262 218 219 202 223 209 210 215 224 228 231 234 231 235 240 262 253 275 252 256 261 265 269 263 266 270 276 284 290 283 284 266 267 280 273 284 293
208 192 190 193 200 209 207 222 214 204 208 214 229 223 230 231 233 236 238 239 241 250 248 259 254 258 261 264 266 269 270 274 268 284 291 284 260 267 283 277 275 299 283
191 188 187 200 215 207 209 226 206 229 213 208 212 215 226 230 230 255 251 250 238 254 247 252 253 257 261 262 271 266 272 274 271 278 267 263 264 273 278 284 275 291 294
197 195 190 192 218 209 194 203 225 201 207 225 218 222 243 239 230 239 230 241 240 249 251 254 255 261 259 269 269 275 271 271 277 265 261 268 265 270 274 279 292 299 310
195 196 186 204 197 197 209 207 206 203 210 221 240 228 217 256 237 230 229 233 238 243 245 254 255 271 264 262 263 268 271 268 272 272 266 281 290 283 271 295 293 303 304
192 198 196 209 207 204 211 212 218 224 205 232 216 223 230 235 229 248 230 244 240 246 250 250 253 259 265 277 265 266 270 265 274 262 277 281 273 284 299 281 303 306 303